Location: Long Geng
(2.6167°N, 114.1333°E)
Time: 23:22:22
(UTC+00:00)

BLOCK DM-SL R/B - Pass Details

Date: 28 September 2021
Orbit: 644 x 35622 km, 0.3° (Epoch: 24 October)

Event Time Altitude Azimuth Distance (km) Brightness Sun altitude
Rises 01:59:57 0° 268° (W) 7,757 8.3 56.1°
Reaches altitude 10° 02:03:07 10° 267° (W) 7,680 8.4 56.9°
Maximum altitude 03:51:45 85° 233° (SW) 24,784 13.6 82.7°
Enters shadow 12:00:12 36° 98° (E) 3,940 6.5 -26.6°
